{"data":{"norad_id":66181,"intl_designator":"2025-243E","name":"STARLINK-35342","alt_names":[],"object_type":"PAYLOAD","status":"ACTIVE","operator":null,"country":"US","launch_date":"2025-10-26","launch_site_code":"AFETR","launch_vehicle":null,"mission":null,"orbit_class":"UNKNOWN","rcs_meters":null,"size_class":null,"mass_kg":null,"dimensions":null,"purposes":["comms"],"wikipedia_slug":null,"has_3d_model":false,"image_url":null,"decayed_at":null,"tle_current":{"epoch":"2026-09-20T20:47:35.676096Z","epoch_age_seconds":68782,"freshness":"FRESH","line1":"1 66181U 25243E   26263.86638514  .00013405  00000+0  40726-3 0  9992","line2":"2 66181  53.1582  56.0200 0001368  95.7419 264.3740 15.34393233 50573","mean_motion":15.34393233,"eccentricity":0.0001368,"inclination_deg":53.1582,"raan_deg":56.02,"arg_perigee_deg":95.7419,"mean_anomaly_deg":264.374,"bstar":0.00040726,"rev_number":5057,"period_min":93.848171969877,"perigee_km":461.78752353478,"apogee_km":463.65918292743,"semimajor_km":6840.8603532311,"source":"CELESTRAK","updated_at":"2026-09-21T09:00:35.834065Z"}}}